| time (UTC) | temp F | wind direction | speed knots | gust knots | rain 1hr in | rain 24hr in | rain mn in | humidity % | barometer mb |
| 20260507164415 | 55 | 207 | 0.9 | 2.6 | 0.00 | 0.00 | 0.00 | 59 | 1014.6 |
| 20260507163416 | 55 | 0.0 | 0.9 | 0.00 | 0.00 | 0.00 | 59 | 1014.5 | |
| 20260507162415 | 55 | 140 | 1.7 | 3.5 | 0.00 | 0.00 | 0.00 | 59 | 1014.6 |
| 20260507161416 | 55 | 162 | 2.6 | 7.0 | 0.00 | 0.00 | 0.00 | 59 | 1014.7 |
| 20260507160417 | 55 | 162 | 2.6 | 5.2 | 0.00 | 0.00 | 0.00 | 59 | 1014.7 |
| 20260507155418 | 55 | 185 | 0.9 | 2.6 | 0.00 | 0.00 | 0.00 | 60 | 1014.6 |
| 20260507154418 | 55 | 0.0 | 0.9 | 0.00 | 0.00 | 0.00 | 60 | 1014.7 | |
| 20260507152418 | 55 | 0.0 | 0.9 | 0.00 | 0.00 | 0.00 | 61 | 1014.9 | |
| 20260507151418 | 55 | 72 | 1.7 | 3.5 | 0.00 | 0.00 | 0.00 | 60 | 1015.0 |
| 20260507145417 | 55 | 0.0 | 0.0 | 0.00 | 0.00 | 0.00 | 60 | 1015.0 | |
| 20260507144417 | 55 | 50 | 0.9 | 1.7 | 0.00 | 0.00 | 0.00 | 60 | 1015.2 |
| 20260507141417 | 56 | 185 | 2.6 | 6.1 | 0.00 | 0.00 | 0.00 | 60 | 1015.4 |
| 20260507140418 | 56 | 185 | 1.7 | 2.6 | 0.00 | 0.00 | 0.00 | 60 | 1015.5 |
| 20260507135418 | 56 | 140 | 1.7 | 3.5 | 0.00 | 0.00 | 0.00 | 62 | 1015.5 |
| 20260507133418 | 56 | 72 | 1.7 | 3.5 | 0.00 | 0.00 | 0.00 | 63 | 1015.6 |
| 20260507132418 | 56 | 185 | 2.6 | 5.2 | 0.00 | 0.00 | 0.00 | 64 | 1015.7 |
| 20260507131417 | 55 | 140 | 1.7 | 3.5 | 0.00 | 0.00 | 0.00 | 63 | 1015.7 |
| 20260507130418 | 55 | 185 | 2.6 | 6.1 | 0.00 | 0.00 | 0.00 | 64 | 1015.7 |
| 20260507125418 | 55 | 72 | 1.7 | 2.6 | 0.00 | 0.00 | 0.00 | 66 | 1015.7 |
| 20260507124418 | 54 | 185 | 3.5 | 6.1 | 0.00 | 0.00 | 0.00 | 67 | 1015.8 |
| 20260507123418 | 54 | 50 | 0.9 | 1.7 | 0.00 | 0.00 | 0.00 | 68 | 1015.9 |
| 20260507122417 | 54 | 140 | 1.7 | 3.5 | 0.00 | 0.00 | 0.00 | 69 | 1015.8 |
| 20260507121417 | 53 | 230 | 0.9 | 1.7 | 0.00 | 0.00 | 0.00 | 71 | 1015.9 |
| 20260507120417 | 52 | 185 | 1.7 | 2.6 | 0.00 | 0.00 | 0.00 | 72 | 1015.9 |
| 20260507115418 | 52 | 185 | 0.9 | 2.6 | 0.00 | 0.00 | 0.00 | 72 | 1016.1 |
| 20260507113418 | 51 | 117 | 2.6 | 3.5 | 0.00 | 0.00 | 0.00 | 73 | 1016.1 |
| 20260507112418 | 51 | 140 | 1.7 | 3.5 | 0.00 | 0.00 | 0.00 | 74 | 1016.1 |
| 20260507111418 | 51 | 185 | 1.7 | 3.5 | 0.00 | 0.00 | 0.00 | 74 | 1016.2 |
| 20260507110417 | 51 | 95 | 0.9 | 1.7 | 0.00 | 0.00 | 0.00 | 75 | 1016.2 |
| 20260507105418 | 51 | 185 | 0.9 | 1.7 | 0.00 | 0.00 | 0.00 | 74 | 1016.3 |
| 20260507104417 | 51 | 162 | 2.6 | 4.3 | 0.00 | 0.00 | 0.00 | 74 | 1016.3 |
| 20260507101417 | 50 | 0.0 | 1.7 | 0.00 | 0.00 | 0.00 | 78 | 1016.1 | |
| 20260507100417 | 50 | 140 | 0.9 | 1.7 | 0.00 | 0.00 | 0.00 | 77 | 1016.0 |
| 20260507095417 | 49 | 207 | 1.7 | 4.3 | 0.00 | 0.00 | 0.00 | 78 | 1016.2 |
| 20260507092417 | 48 | 162 | 2.6 | 6.1 | 0.00 | 0.00 | 0.00 | 83 | 1016.2 |
| 20260507091359 | 47 | 162 | 0.9 | 1.7 | 0.00 | 0.00 | 0.00 | 84 | 1016.3 |